Regional Weather Roundup
Issued by NWS

Home | Current Version | Previous Version | Graphics & Text | Print | Product List | Glossary On
Versions: 1 2 3 4 5 6 7 8 9 10 11 12 13 14 15 16 17 18 19 20 21 22 23 24 25 26 27 28 29 30 31 32 33 34 35 36 37 38 39 40 41 42 43 44 45 46 47 48 49 50
000
ASUS43 KDTX 080210
RWRMI
MICHIGAN HOURLY REGIONAL WEATHER ROUNDUP
NATIONAL WEATHER SERVICE DETROIT/PONTIAC MI
900 PM EST SUN FEB 07 2016

NOTE: "FAIR" INDICATES FEW OR NO CLOUDS BELOW 12,000 FEET WITH NO
SIGNIFICANT WEATHER AND/OR OBSTRUCTION TO VISIBILITY.

MIZ047>049-052>055-059>063-066>070-074>076-081>083-080300-
SOUTHEAST LOWER MICHIGAN

CITY           SKY/WX    TMP DP  RH WIND       PRES   REMARKS
ADRIAN         CLOUDY    42  32  67 SW9       29.75F
ALMA           CLOUDY    40  33  76 SW7       29.70F WCI  35
ANN ARBOR      CLOUDY    41  31  67 SW6       29.73F
BAD AXE        LGT RAIN  41  34  74 SW12      29.72S
CARO           CLOUDY    41  32  70 S7        29.70F
DETROIT CITY   CLOUDY    46  29  51 SW10      29.75F
DETROIT        CLOUDY    45  31  58 S9        29.75F
FLINT          CLOUDY    44  29  55 SW6       29.72F
GROSSE ILE     MOCLDY    45  32  61 CALM      29.74F
HILLSDALE      CLOUDY    40  30  66 SW5       29.73F
HOWELL         CLOUDY    42  30  63 SW6       29.71F

CITY           SKY/WX    TMP DP  RH WIND       PRES   REMARKS
JACKSON        CLOUDY    42  30  62 SW9       29.72F
LAMBERTVILLE   CLOUDY    46  31  56 S8        29.76F
LANSING        CLOUDY    40  30  67 SW9       29.71F WCI  34
LAPEER         CLOUDY    42  30  62 SW9       29.71F
MASON          MOCLDY    40  31  71 SW5       29.71F
MONROE         CLOUDY    45  31  57 S8        29.74F
MT. CLEMENS    CLOUDY    45  31  58 S9        29.73F
PONTIAC        CLOUDY    44  29  55 S8        29.72F
PORT HOPE        N/A     42  32  67 SW9       29.70F
PORT HURON     CLOUDY    41  32  70 S8        29.75F
TRI CITIES     CLOUDY    41  31  67 SW7       29.70F
MIDLAND        CLOUDY    40  30  66 SW8       29.69S
TROY           CLOUDY    47  30  52 SW9       29.75F
SAGINAW HB     CLOUDY    41  34  75 SW8       29.70F
$$
MIZ043>046-050>051-056>058-064>065-071>073-077>080-080300-
SOUTHWEST LOWER MICHIGAN

CITY           SKY/WX    TMP DP  RH WIND       PRES   REMARKS
BATTLE CREEK   CLOUDY    40  32  73 SW9       29.72F WCI  34
BENTON HARBOR  MOCLDY    41  32  70 SW17      29.73F
BIG RAPIDS     CLOUDY    37  33  85 S3        29.66S
COLDWATER      PTCLDY    39  32  76 SW8       29.73F WCI  33
FREMONT        CLOUDY    37  33  88 S6        29.67S WCI  32
HOLLAND        CLOUDY    40  33  76 SW13      29.71F WCI  32
GRAND RAPIDS   CLOUDY    40  32  73 SW10      29.70F WCI  33
IONIA          CLOUDY    39  32  74 SW10      29.70S WCI  32
KALAMAZOO      MOCLDY    39  31  72 SW6       29.73F WCI  35
LUDINGTON      CLOUDY    37  34  89 SW7       29.65F WCI  31
MARSHALL       PTCLDY    40  32  73 SW6       29.72F
MOUNT PLEASANT CLOUDY    39  30  70 S7        29.68F WCI  34
MUSKEGON       CLOUDY    40  33  76 SW12      29.69F WCI  33
SOUTH HAVEN    MOCLDY    40  33  76 SW16G23   29.72S WCI  32
$$
MIZ016>042-080300-
NORTHERN LOWER MICHIGAN

CITY           SKY/WX    TMP DP  RH WIND       PRES   REMARKS
ALPENA         CLOUDY    39  30  70 SW7       29.66F WCI  34
BEAVER ISLAND  CLOUDY    37  34  88 S6        29.62S WCI  32
BELLAIRE       CLOUDY    38  31  76 S3        29.64F
CADILLAC       CLOUDY    35  32  87 S5        29.63F WCI  31
CHARLEVOIX     CLOUDY    37  32  81 S7        29.66S WCI  32
FRANKFORT      CLOUDY    38  33  81 S9        29.63F WCI  32
GAYLORD        CLOUDY    37  30  75 SW9       29.62F WCI  30
GRAYLING       CLOUDY    36  30  78 S5        29.65S WCI  32
HARBOR SPRINGS CLOUDY    38  31  77 SW6       29.63S WCI  33
HOUGHTON LAKE  CLOUDY    36  29  75 SW8       29.65F WCI  30
MANISTEE       CLOUDY    37  30  75 S5        29.65S WCI  34
OSCODA         CLOUDY    39  32  75 SW8       29.68S WCI  34
PELLSTON       CLOUDY    38  30  73 SW7       29.64S WCI  33
ROGERS CITY    CLOUDY    38  30  73 S6        29.65F WCI  33
TRAVERSE CITY  CLOUDY    39  30  70 S6        29.63F WCI  35
$$
MIZ007>008-015-080300-
EASTERN UPPER MICHIGAN

CITY           SKY/WX    TMP DP  RH WIND       PRES   REMARKS
KINROSS        CLOUDY    34  34 100 E6        29.63F WCI  29
MACKINAC ISLAN CLOUDY    35  34  99 S5        29.63S WCI  30
NEWBERRY       CLOUDY    35  34  96 S6        29.58F WCI  30
S. S. MARIE    CLOUDY    33  31  92 E3        29.63F FOG
MUNISING         N/A     35  32  88 S5        29.55F WCI  31
$$
MIZ004>006-011>014-085-080300-
CENTRAL UPPER MICHIGAN

CITY           SKY/WX    TMP DP  RH WIND       PRES   REMARKS
MANISTIQUE     CLOUDY    35  34  96 S6        29.58F WCI  30
ESCANABA       CLOUDY    36  30  80 S5        29.58S WCI  32
MENOMINEE      CLOUDY    37  28  70 SW7       29.58F WCI  32
SAWYER-GWINN   LGT SNOW  32  32 100 S8        29.53F WCI  25
$$
MIZ001>003-009>011-084-080300-
WESTERN UPPER MICHIGAN

CITY           SKY/WX    TMP DP  RH WIND       PRES   REMARKS
IRON MOUNTAIN  CLOUDY    34  30  85 S6        29.53F WCI  29
HOUGHTON       CLOUDY    32  31  96 CALM      29.50S FOG
COPPER HARBOR    N/A     33  32  96 CALM      29.53S
IRONWOOD       CLOUDY    32  32 100 W9        29.48F WCI  24
$$

ABBREVIATIONS USED IN REMARKS
   TC - TEMPERATURE IN CELSIUS
  WCI - WIND CHILL INDEX
   HX - HEAT INDEX
  VSB - VISIBILITY




USA.gov is the U.S. government's official web portal to all federal, state and local government web resources and services.